Location: Chicoutimi
(48.4330°N, 71.0670°W)
Time: 01:56:59
(UTC-04:00)

ISS - Visible Passes

Search period start: 26 October 2014 00:00
Search period end: 04 November 2014 23:00
Orbit: 412 x 416 km, 51.6° (Epoch: 25 October)

Date Brightness Start Highest point End Pass type
(mag) Time Alt. Az. Time Alt. Az. Time Alt. Az.
26 Oct -2.2 18:01:37 10° WNW 18:04:51 47° SSW 18:08:04 10° SE visible
27 Oct -0.3 18:49:56 10° W 18:51:52 15° SW 18:53:47 10° S visible
28 Oct -0.7 18:00:05 10° W 18:02:46 23° SW 18:05:26 10° SSE visible
